This demonstration page uses our WeatherBlox Daily Observations layout. Learn more.

Hourly Observations for December 2, 2016

Temp ( °F °C ) Dew Point ( °F °C ) Humidity (%) Winds ( mph kmh ) Pressure ( in mb ) Visibility ( mi km ) Precip ( " mm )
12:54 am 00:54 Partly Cloudy 29 -1.7 24 -4.4 82 82 Calm 30.18 1022 10 16.0934 0 0
1:54 am 01:54 Clear 25 -3.9 22 -5.6 88 88 N 3 6 30.19 1022 10 16.0934 0 0
2:54 am 02:54 Clear 28 -2.2 24 -4.4 85 85 Calm 30.2 1023 10 16.0934 0 0
3:54 am 03:54 Clear 26 -3.3 23 -5 88 88 Calm 30.21 1023 10 16.0934 0 0
4:54 am 04:54 Clear 22 -5.6 19 -7.2 89 89 NNW 3 6 30.23 1024 10 16.0934 0 0
5:54 am 05:54 Clear 23 -5 20 -6.7 88 88 N 5 7 30.25 1024 10 16.0934 0 0
6:54 am 06:54 Clear 22 -5.6 20 -6.7 92 92 Calm 30.28 1025 10 16.0934 0 0
7:54 am 07:54 Sunny 21 -6.1 19 -7.2 92 92 NNW 3 6 30.3 1026 8 12.87472 0 0
8:54 am 08:54 Sunny 26 -3.3 24 -4.4 92 92 Calm 30.31 1027 9 14.48406 0 0
9:54 am 09:54 Sunny 33 0.6 27 -2.8 78 78 N 3 6 30.33 1027 9 14.48406 0 0
10:54 am 10:54 Sunny 38 3.3 29 -1.7 70 70 N 5 7 30.33 1027 10 16.0934 0 0
11:54 am 11:54 Sunny 40 4.4 29 -1.7 65 65 Calm 30.34 1028 10 16.0934 0 0
12:54 pm 12:54 Sunny 44 6.7 29 -1.7 55 55 NNW 3 6 30.33 1027 10 16.0934 0 0
1:54 pm 13:54 Sunny 44 6.7 28 -2.2 53 53 WNW 6 9 30.32 1027 10 16.0934 0 0
2:54 pm 14:54 Sunny 44 6.7 26 -3.3 49 49 WNW 6 9 30.32 1027 10 16.0934 0 0
3:54 pm 15:54 Sunny 43 6.1 27 -2.8 53 53 NNW 7 11 30.33 1027 10 16.0934 0 0
4:54 pm 16:54 Sunny 39 3.9 27 -2.8 62 62 NNW 6 9 30.35 1028 10 16.0934 0 0
5:54 pm 17:54 Clear 34 1.1 26 -3.3 73 73 N 3 6 30.37 1029 10 16.0934 0 0
6:54 pm 18:54 Clear 30 -1.1 25 -3.9 82 82 N 6 9 30.38 1029 10 16.0934 0 0
7:54 pm 19:54 Clear 26 -3.3 23 -5 88 88 NNE 6 9 30.39 1029 10 16.0934 0 0
8:54 pm 20:54 Clear 31 -0.6 26 -3.3 82 82 Calm 30.39 1029 10 16.0934 0 0
9:54 pm 21:54 Clear 27 -2.8 24 -4.4 89 89 N 6 9 30.38 1029 10 16.0934 0 0
10:54 pm 22:54 Clear 25 -4 21 -6 86 86 Calm 30.42 1030 10 16.0934 0 0
11:54 pm 23:54 Clear 24 -4.4 22 -5.6 91 91 Calm 30.4 1030 10 16.0934 0 0

Powered by AerisWeather